GLT1 KLAX-KCVG

Flight info

Callsign GLT1
Flight time N/A
Altitude 39000
Route DOTSS2 CLEEE PKE J134 LANCY INW GUP KA36U KK42A KK45G FAM TERGE SARGO5
Aircraft C750/M-VGDW/C

Departure

Time 2026-04-25 22:10
Airport Los Angeles International Airport (KLAX)

Arrival

Time N/A
Airport Cincinnati Northern Kentucky International Airport (KCVG)
Time Latitude Longitude Altitude Speed Heading
2026-04-25 22:00 33.93335 -118.39720 92 ft 0 kts 104°
2026-04-25 22:05 33.93323 -118.39695 92 ft 5 kts 142°
2026-04-25 22:06 33.93292 -118.39740 94 ft 9 kts 257°
2026-04-25 22:06 33.93311 -118.39795 92 ft 7 kts 340°
2026-04-25 22:06 33.93352 -118.39804 93 ft 8 kts 351°
2026-04-25 22:06 33.93426 -118.39816 98 ft 14 kts 353°
2026-04-25 22:07 33.93465 -118.39727 97 ft 17 kts 83°
2026-04-25 22:07 33.93475 -118.39623 97 ft 20 kts 84°
2026-04-25 22:07 33.93502 -118.39363 97 ft 27 kts 82°
2026-04-25 22:07 33.93526 -118.39135 97 ft 27 kts 82°
2026-04-25 22:08 33.93547 -118.38921 96 ft 25 kts 84°
2026-04-25 22:08 33.93568 -118.38720 96 ft 23 kts 83°
2026-04-25 22:08 33.93587 -118.38534 97 ft 21 kts 83°
2026-04-25 22:08 33.93604 -118.38362 96 ft 20 kts 83°
2026-04-25 22:09 33.93638 -118.38278 99 ft 0 kts 13°
2026-04-25 22:09 33.93645 -118.38277 100 ft 3 kts
2026-04-25 22:09 33.93685 -118.38282 105 ft 10 kts 353°
2026-04-25 22:10 33.93728 -118.38382 107 ft 32 kts 263°
2026-04-25 22:10 33.93658 -118.39053 104 ft 124 kts 263°
2026-04-25 22:10 33.93533 -118.40250 271 ft 159 kts 262°
2026-04-25 22:10 33.93399 -118.41635 877 ft 170 kts 262°
2026-04-25 22:11 33.93255 -118.43062 1455 ft 181 kts 260°
2026-04-25 22:11 33.93062 -118.44661 1921 ft 204 kts 261°
2026-04-25 22:11 33.92576 -118.46392 2243 ft 236 kts 239°
2026-04-25 22:11 33.91524 -118.48034 2884 ft 251 kts 230°
2026-04-25 22:12 33.90376 -118.49638 3816 ft 254 kts 229°
2026-04-25 22:12 33.89261 -118.51306 4648 ft 251 kts 233°
2026-04-25 22:12 33.88182 -118.53036 5012 ft 269 kts 233°
2026-04-25 22:12 33.87790 -118.53643 5000 ft 268 kts 232°
2026-04-25 22:13 33.85207 -118.55647 6218 ft 268 kts 193°
2026-04-25 22:13 33.83365 -118.55624 7033 ft 274 kts 170°
2026-04-25 22:13 33.81484 -118.55084 7872 ft 278 kts 168°
2026-04-25 22:13 33.79609 -118.54598 8844 ft 280 kts 170°
2026-04-25 22:14 33.77679 -118.54125 9721 ft 285 kts 171°
2026-04-25 22:14 33.75721 -118.53625 10471 ft 293 kts 172°
2026-04-25 22:14 33.73641 -118.53093 10626 ft 319 kts 172°
2026-04-25 22:14 33.71448 -118.52227 10710 ft 349 kts 155°
2026-04-25 22:15 33.69565 -118.50279 11197 ft 366 kts 134°
2026-04-25 22:15 33.68330 -118.47569 11876 ft 377 kts 116°
2026-04-25 22:15 33.67452 -118.44571 12491 ft 384 kts 112°
2026-04-25 22:16 33.65715 -118.38462 13752 ft 390 kts 115°
2026-04-25 22:16 33.64796 -118.35365 14319 ft 397 kts 111°
2026-04-25 22:16 33.64446 -118.32034 14835 ft 408 kts 94°
2026-04-25 22:16 33.64447 -118.29774 15280 ft 410 kts 93°
2026-04-25 22:17 33.64471 -118.26336 15875 ft 414 kts 93°
2026-04-25 22:17 33.64476 -118.22865 16469 ft 418 kts 94°
2026-04-25 22:17 33.64464 -118.19367 17074 ft 420 kts 94°
2026-04-25 22:17 33.64448 -118.15840 17533 ft 426 kts 94°
2026-04-25 22:18 33.64457 -118.12271 18124 ft 430 kts 93°
2026-04-25 22:18 33.64478 -118.08669 18724 ft 433 kts 93°
2026-04-25 22:18 33.64472 -118.05038 19344 ft 436 kts 94°
2026-04-25 22:18 33.64455 -118.01378 19937 ft 440 kts 94°
2026-04-25 22:19 33.64447 -117.97690 20570 ft 444 kts 94°
2026-04-25 22:19 33.64448 -117.93976 21168 ft 448 kts 93°
2026-04-25 22:19 33.64443 -117.90564 21697 ft 451 kts 94°
2026-04-25 22:19 33.64430 -117.86829 22280 ft 455 kts 94°
2026-04-25 22:20 33.64419 -117.83026 22848 ft 458 kts 94°
2026-04-25 22:20 33.64566 -117.79170 23344 ft 466 kts 85°
2026-04-25 22:20 33.65214 -117.75344 23910 ft 471 kts 78°
2026-04-25 22:20 33.65971 -117.71507 24442 ft 475 kts 79°
2026-04-25 22:21 33.66714 -117.67630 24908 ft 480 kts 79°
2026-04-25 22:21 33.67458 -117.63697 25370 ft 485 kts 79°
2026-04-25 22:21 33.68219 -117.59734 25834 ft 489 kts 79°
2026-04-25 22:21 33.68993 -117.55736 26304 ft 493 kts 79°
2026-04-25 22:22 33.69765 -117.51701 26737 ft 498 kts 79°
2026-04-25 22:22 33.70534 -117.47610 27246 ft 503 kts 79°
2026-04-25 22:22 33.71318 -117.43504 27650 ft 507 kts 79°
2026-04-25 22:22 33.72118 -117.39357 28042 ft 512 kts 79°
2026-04-25 22:23 33.72916 -117.35150 28478 ft 516 kts 79°
2026-04-25 22:23 33.73705 -117.30930 28890 ft 521 kts 79°
2026-04-25 22:23 33.74509 -117.26663 29289 ft 525 kts 79°
2026-04-25 22:23 33.75022 -117.22318 29615 ft 526 kts 90°
2026-04-25 22:24 33.75038 -117.17928 30060 ft 525 kts 95°
2026-04-25 22:24 33.74941 -117.13586 30423 ft 529 kts 96°
2026-04-25 22:24 33.74849 -117.09151 30817 ft 531 kts 95°
2026-04-25 22:24 33.74765 -117.04710 31258 ft 532 kts 96°
2026-04-25 22:25 33.74672 -117.00265 31772 ft 531 kts 96°
2026-04-25 22:25 33.74573 -116.95827 32253 ft 532 kts 96°
2026-04-25 22:25 33.74474 -116.91381 32764 ft 532 kts 96°
2026-04-25 22:25 33.74377 -116.86941 33266 ft 532 kts 96°
2026-04-25 22:26 33.74279 -116.82503 33774 ft 531 kts 97°
2026-04-25 22:26 33.74176 -116.78065 34302 ft 531 kts 97°
2026-04-25 22:26 33.74072 -116.73636 34809 ft 531 kts 97°
2026-04-25 22:26 33.73964 -116.69193 35302 ft 531 kts 97°
2026-04-25 22:27 33.73859 -116.64743 35769 ft 532 kts 97°
2026-04-25 22:27 33.73751 -116.60294 35975 ft 535 kts 97°
2026-04-25 22:27 33.73641 -116.55828 36395 ft 535 kts 97°
2026-04-25 22:27 33.73530 -116.51364 36895 ft 534 kts 97°
2026-04-25 22:28 33.73418 -116.46924 37499 ft 529 kts 97°
2026-04-25 22:28 33.73306 -116.42522 38042 ft 526 kts 97°
2026-04-25 22:28 33.73187 -116.38110 38353 ft 528 kts 97°
2026-04-25 22:28 33.73068 -116.33696 38693 ft 530 kts 97°
2026-04-25 22:29 33.72951 -116.29253 38839 ft 537 kts 97°
2026-04-25 22:29 33.72695 -116.20089 38845 ft 556 kts 97°
2026-04-25 22:30 33.72493 -116.10664 38835 ft 575 kts 93°
2026-04-25 22:30 33.72855 -116.05886 38834 ft 586 kts 84°
2026-04-25 22:30 33.74599 -115.97863 38845 ft 598 kts 72°
2026-04-25 22:31 33.78138 -115.86934 38870 ft 605 kts 70°
2026-04-25 22:31 33.80673 -115.77293 38864 ft 604 kts 76°
2026-04-25 22:32 33.83279 -115.67751 38859 ft 605 kts 71°
2026-04-25 22:32 33.85979 -115.58153 38837 ft 605 kts 75°
2026-04-25 22:33 33.88541 -115.48500 38835 ft 606 kts 72°
2026-04-25 22:33 33.91244 -115.38879 38841 ft 607 kts 74°
2026-04-25 22:34 33.93807 -115.29187 38828 ft 608 kts 73°
2026-04-25 22:34 33.96488 -115.19504 38827 ft 609 kts 73°
2026-04-25 22:35 33.99069 -115.09766 38825 ft 610 kts 73°
2026-04-25 22:35 34.01700 -115.00117 38826 ft 608 kts 73°
2026-04-25 22:36 34.04273 -114.90421 38811 ft 608 kts 73°
2026-04-25 22:36 34.06880 -114.80714 38809 ft 610 kts 73°
2026-04-25 22:37 34.09465 -114.70966 38813 ft 610 kts 73°
2026-04-25 22:37 34.12187 -114.61272 38800 ft 610 kts 72°
2026-04-25 22:38 34.14905 -114.51514 38801 ft 613 kts 72°
2026-04-25 22:38 34.17655 -114.41839 38801 ft 613 kts 72°
2026-04-25 22:39 34.20380 -114.32068 38801 ft 613 kts 72°
2026-04-25 22:39 34.23124 -114.22286 38799 ft 614 kts 72°
2026-04-25 22:40 34.25849 -114.12493 38802 ft 614 kts 72°
2026-04-25 22:40 34.28428 -114.02661 38803 ft 614 kts 74°
2026-04-25 22:41 34.30955 -113.92854 38814 ft 615 kts 74°
2026-04-25 22:41 34.33458 -113.82969 38803 ft 614 kts 74°
2026-04-25 22:42 34.35972 -113.73093 38820 ft 614 kts 74°
2026-04-25 22:42 34.38468 -113.63199 38827 ft 614 kts 75°
2026-04-25 22:43 34.40957 -113.53309 38842 ft 613 kts 74°
2026-04-25 22:43 34.43434 -113.43442 38850 ft 613 kts 75°
2026-04-25 22:44 34.45883 -113.33626 38901 ft 612 kts 74°